Location: George Washington National Forest Helicopter Landing Site
(38.6463°N, 79.0851°W)
Time: 15:34:20
(UTC-04:00)

Altair - Visible Passes

Search period start: 18 August 2019 00:00
Search period end: 28 August 2019 00:00
Orbit: 1501 x 1683 km, 47.2° (Epoch: 16 August)

Date Brightness Start Highest point End Pass type
(mag) Time Alt. Az. Time Alt. Az. Time Alt. Az.
18 Aug 9.0 02:51:16 19° SE 02:52:11 19° SE 02:58:23 10° E visible
18 Aug 7.7 04:49:18 24° SW 04:55:44 67° SE 05:05:04 10° ENE visible
19 Aug 9.1 02:27:34 17° ESE 02:27:34 17° ESE 02:32:44 10° E visible
19 Aug 7.7 04:25:36 32° SSW 04:30:35 62° SE 04:39:54 10° ENE visible
20 Aug 9.3 02:03:50 14° ESE 02:03:50 14° ESE 02:06:58 10° E visible
20 Aug 7.8 04:01:50 40° SSW 04:05:27 58° SE 04:14:42 10° ENE visible
20 Aug 7.8 06:00:35 10° WSW 06:10:15 65° NNW 06:19:35 10° ENE visible
21 Aug 9.4 01:40:03 11° ESE 01:40:03 11° ESE 01:40:57 10° E visible
21 Aug 7.8 03:38:04 46° S 03:40:18 54° SE 03:49:30 10° ENE visible
21 Aug 7.7 05:36:05 13° WSW 05:45:01 68° NNW 05:54:24 10° ENE visible
22 Aug 7.8 03:14:15 48° SSE 03:15:11 50° SE 03:24:17 10° ENE visible
22 Aug 7.7 05:12:16 19° WSW 05:19:47 71° NNW 05:29:14 10° ENE visible
23 Aug 8.0 02:50:24 46° SE 02:50:24 46° SE 02:59:03 10° ENE visible
23 Aug 7.6 04:48:25 27° WSW 04:54:33 74° NNW 05:04:04 10° ENE visible
24 Aug 8.2 02:26:31 40° ESE 02:26:31 40° ESE 02:33:48 10° ENE visible
24 Aug 7.5 04:24:32 36° WSW 04:29:20 78° NNW 04:38:53 10° ENE visible
25 Aug 8.5 02:02:37 33° E 02:02:37 33° E 02:08:32 10° ENE visible
25 Aug 7.5 04:00:37 47° WSW 04:04:07 82° NNW 04:13:44 10° ENE visible
25 Aug 8.1 06:00:25 10° W 06:09:51 52° N 06:18:57 10° ENE visible
26 Aug 8.8 01:38:41 26° E 01:38:41 26° E 01:43:15 10° ENE visible
26 Aug 7.4 03:36:41 60° WSW 03:38:54 86° NNW 03:48:34 10° ENE visible
26 Aug 8.1 05:35:04 10° W 05:44:34 52° N 05:53:43 10° ENE visible
27 Aug 9.0 01:14:43 21° E 01:14:43 21° E 01:17:55 10° ENE visible
27 Aug 7.3 03:12:43 76° WSW 03:13:43 90° SE 03:23:23 10° ENE visible
27 Aug 8.0 05:10:44 14° W 05:19:17 53° N 05:28:29 10° ENE visible
